Location: Carrières
(48.9495°N, 2.0407°E)
Time: 11:11:14
(UTC+00:00)

Transit 2A Rocket - Pass Details

Date: 30 April 2024
Orbit: 584 x 909 km, 66.7° (Epoch: 25 May)

Event Time Altitude Azimuth Distance (km) Brightness Sun altitude
Rises 07:41:53 0° 157° (SSE) 2,890 8.4 29.6°
Reaches altitude 10° 07:45:24 10° 127° (SE) 2,050 8.4 30.2°
Maximum altitude 07:47:16 12° 103° (ESE) 1,935 8.9 30.5°
Drops below altitude 10° 07:49:11 10° 79° (E) 2,131 8.5 30.8°
Sets 07:53:00 0° 51° (NE) 3,139 8.6 31.4°
